Location: Huesca
(42.1318°N, 0.4078°W)
Time: 01:08:27
(UTC+02:00)

ESTCUBE 1 - Pass Details

Date: 04 May 2024
Orbit: 635 x 647 km, 97.8° (Epoch: 19 May)

Event Time Altitude Azimuth Distance (km) Brightness Sun altitude
Exits shadow 23:39:46 71° 200° (SSW) 676 ? -23.4°
Maximum altitude 23:40:10 80° 257° (WSW) 652 ? -23.4°
Drops below altitude 10° 23:44:36 10° 345° (NNW) 2,034 ? -23.9°
Sets 23:46:49 0° 347° (NNW) 2,949 ? -24.2°
